Location: Complexul Astronomic Baia Mare
(47.6577°N, 23.5639°E)
Time: 13:27:51
(UTC+03:00)

ISS - Pass Details

Date: 05 June 2017
Orbit: 401 x 408 km, 51.6° (Epoch: 23 June)

Event Time Altitude Azimuth Distance (km) Brightness Sun altitude
Rises 00:35:05 0° 288° (WNW) 2,338 0.4 -18.9°
Reaches altitude 10° 00:37:30 10° 272° (W) 1,472 -0.9 -19.0°
Enters shadow 00:38:42 17° 254° (WSW) 1,139 -1.6 -19.1°
